Flag for Mozambique Weather past 2 weeks in Maputo, Mozambique

Now
66 °F

Drizzle. More clouds than sun.


Feels Like: 66 °F
Forecast: 59 / 80 °F
Wind: 8 mph from South

Location: Maputo / Mavalane

Current Time: Jul 7, 2015 at 11:32:34 AM

Latest Report: Jul 7, 2015 at 11:00 AM


Visibility: 2 mi

Pressure: 30.48 "Hg

Humidity: 94%

Dew point: 64 °F

Location of MaputoLocation

Historic Weather in Maputo — Graph

°F

Maputo temperature yesterday

Maximum temperature yesterday: 79 °F (at 1:00 PM)
Minimum temperature yesterday: 70 °F (at 8:00 PM)
Average temperature yesterday: 73 °F

Past Weeks' High & Low Weather Summary

 TemperatureHumidityPressure
High91 °F (Jun 22, 1:00 PM)100% (Jul 3, 9:00 AM)30.48 "Hg (Jul 3, 9:00 AM)
Low50 °F (Jun 24, 7:00 AM)17% (Jun 24, 1:00 PM)29.95 "Hg (Jul 5, 2:00 PM)
Average69 °F66%30.22 "Hg
* Reported Jun 22 10:00 AM — Jul 7 10:00 AM, Maputo, Weather by CustomWeather, © 2015

Note: Actual official high and low records may vary slightly from our data, if they occured in-between our weather recording intervals... More about our weather records

Advertising

Maputo weather history for previous 24 hours

 ConditionsComfort  
Time TempWeatherWind HumidityBarometerVisibility
10:00 AM
Tue, Jul 7
70 °FDrizzle. Broken clouds.12 mph73%30.48 "Hg3 mi
9:00 AM79 °FPartly sunny.12 mph54%30.48 "HgN/A
8:00 AM66 °FScattered clouds.13 mph83%30.48 "HgN/A
7:00 AM63 °FPassing clouds.10 mph94%30.45 "HgN/A
6:00 AM63 °FPassing clouds.9 mph88%30.45 "HgN/A
5:00 AM63 °FPassing clouds.9 mph94%30.42 "HgN/A
4:00 AM63 °FPassing clouds.9 mph94%30.42 "HgN/A
3:00 AM63 °FPassing clouds.12 mph94%30.42 "HgN/A
2:00 AM64 °FPassing clouds.12 mph88%30.42 "HgN/A
1:00 AM64 °FPartly cloudy.12 mph94%30.42 "HgN/A
11:00 PM
Mon, Jul 6
70 °FPassing clouds.13 mph78%30.42 "HgN/A
10:00 PM70 °FPassing clouds.13 mph78%30.42 "HgN/A
9:00 PM70 °FPassing clouds.13 mph78%30.39 "HgN/A
8:00 PM70 °FPassing clouds.12 mph78%30.27 "HgN/A
7:00 PM72 °FClear.12 mph73%30.33 "Hg10 mi
6:00 PM72 °FClear.13 mph69%30.30 "Hg10 mi
5:00 PM73 °FClear.10 mph69%30.27 "Hg3 mi
4:00 PM77 °FSunny.12 mph51%30.27 "Hg10 mi
3:00 PM79 °FSunny.7 mph39%30.24 "Hg10 mi
1:00 PM79 °FSunny.6 mph34%30.24 "Hg10 mi
12:00 PM77 °FSunny.1 mph39%30.27 "Hg10 mi
Weather by CustomWeather, © 2015

See weather overviewHow to use our weather pages